Flag for Montenegro Weather past 2 weeks in Podgorica, Montenegro

39 °F


Feels Like: 39 °F
Forecast: 32 / 54 °F
Wind: No wind

Location: Podgorica Titograd

Current Time: Nov 30, 2015 at 2:32:36 AM

Latest Report: Nov 30, 2015 at 2:00 AM

Visibility: 10 mi

Pressure: 30.27 "Hg

Humidity: 56%

Dew point: 25 °F

Location of PodgoricaLocation

Historic Weather in Podgorica — Graph


Podgorica temperature yesterday

Maximum temperature yesterday: 57 °F (at 12:30 PM)
Minimum temperature yesterday: 39 °F (at 1:00 AM)
Average temperature yesterday: 49 °F

Past Weeks' High & Low Weather Summary

High70 °F (Nov 17, 12:30 PM)100% (Nov 15, 4:00 AM)30.27 "Hg (Nov 15, 4:00 AM)
Low39 °F (Nov 29, 1:00 AM)31% (Nov 29, 2:00 PM)29.33 "Hg (Nov 21, 8:30 PM)
Average53 °F76%29.91 "Hg
* Reported Nov 15 1:00 AM — Nov 30 1:00 AM, Podgorica, Weather by CustomWeather, © 2015

Note: Actual official high and low records may vary slightly from our data, if they occured in-between our weather recording intervals... More about our weather records


Podgorica weather history for previous 24 hours

Time TempWeatherWind HumidityBarometerVisibility
1:00 AM
Mon, Nov 30
39 °FClear.3 mph61%30.27 "Hg10 mi
12:00 AM39 °FClear.9 mph61%30.27 "Hg10 mi
11:30 PM
Sun, Nov 29
41 °FClear.7 mph57%30.27 "Hg10 mi
11:00 PM41 °FClear.5 mph57%30.27 "Hg10 mi
10:30 PM45 °FClear.2 mph46%30.27 "Hg10 mi
10:00 PM45 °FPassing clouds.3 mph46%30.27 "HgN/A
9:30 PM45 °FClear.2 mph46%30.27 "Hg10 mi
9:00 PM46 °FClear.7 mph46%30.27 "Hg10 mi
8:30 PM45 °FClear.6 mph49%30.24 "Hg10 mi
8:00 PM46 °FClear.7 mph46%30.24 "Hg10 mi
7:30 PM48 °FClear.10 mph40%30.24 "Hg10 mi
7:00 PM48 °FClear.12 mph43%30.24 "Hg10 mi
6:30 PM48 °FPassing clouds.10 mph40%30.21 "HgN/A
6:00 PM48 °FClear.10 mph40%30.21 "Hg10 mi
5:30 PM50 °FClear.10 mph40%30.18 "Hg10 mi
5:00 PM50 °FClear.9 mph40%30.18 "Hg10 mi
4:30 PM50 °FPassing clouds.9 mph40%30.18 "HgN/A
4:00 PM54 °FPassing clouds.8 mph35%30.18 "HgN/A
3:30 PM54 °FPassing clouds.8 mph35%30.18 "HgN/A
3:00 PM55 °FPassing clouds.8 mph36%30.18 "HgN/A
2:30 PM55 °FPassing clouds.9 mph33%30.18 "HgN/A
2:00 PM57 °FPassing clouds.9 mph31%30.15 "HgN/A
1:30 PM57 °FPassing clouds.9 mph33%30.15 "HgN/A
1:00 PM57 °FPassing clouds.10 mph33%30.15 "HgN/A
12:30 PM57 °FPassing clouds.13 mph33%30.15 "HgN/A
12:00 PM55 °FPassing clouds.16 mph33%30.15 "HgN/A
11:30 AM55 °FPassing clouds.14 mph33%30.18 "HgN/A
11:00 AM55 °FPassing clouds.15 mph36%30.18 "HgN/A
10:30 AM55 °FPassing clouds.15 mph36%30.18 "HgN/A
10:00 AM55 °FPassing clouds.15 mph38%30.15 "HgN/A
9:30 AM54 °FPassing clouds.15 mph41%30.15 "HgN/A
9:00 AM52 °FPassing clouds.9 mph47%30.15 "HgN/A
7:30 AM48 °FPartly sunny.8 mph50%30.12 "HgN/A
7:00 AM46 °FPartly sunny.5 mph57%30.09 "HgN/A
6:00 AM48 °FPassing clouds.9 mph50%30.09 "HgN/A
5:30 AM46 °FPassing clouds.9 mph57%30.09 "HgN/A
5:00 AM46 °FPassing clouds.7 mph62%30.07 "HgN/A
4:30 AM46 °FPassing clouds.12 mph66%30.07 "HgN/A
4:00 AM46 °FPassing clouds.13 mph66%30.07 "HgN/A
3:30 AM45 °FPassing clouds.10 mph71%30.07 "HgN/A
3:00 AM43 °FPassing clouds.6 mph76%30.07 "HgN/A
2:30 AM41 °FPassing clouds.6 mph87%30.07 "HgN/A
2:00 AM39 °FPassing clouds.5 mph93%30.07 "HgN/A
Weather by CustomWeather, © 2015

See weather overviewHow to use our weather pages